Charlottesville, VA

1:16 PM EDT on June 25, 2017 (GMT -0400)
Charlottesville-Albemarle

Weather History for KCHO - June, 2013

Change the Weather History Date:

Saturday, June 15, 2013

  Actual Average Record
Temperature  
Mean Temperature 69 °F 72 °F  
Max Temperature 82 °F 83 °F 98 °F (1994)
Min Temperature 56 °F 61 °F 46 °F (1933)
Degree Days  
Heating Degree Days 0 0  
Month to date heating degree days 2 8  
Since 1 June heating degree days 2 8  
Since 1 July heating degree days 4207 4441  
Cooling Degree Days 4 7  
Month to date cooling degree days 101 85  
Year to date cooling degree days 248 171  
Since 1 June cooling degree days 101 85  
Growing Degree Days 19 (Base 50)    
Moisture  
Dew Point 55 °F    
Average Humidity 58    
Maximum Humidity 80    
Minimum Humidity 36    
Precipitation  
Precipitation 0.00 in 0.12 in 0.69 in (2001)
Month to date precipitation 5.86 2.06  
Year to date precipitation 22.49 18.53  
Sea Level Pressure  
Sea Level Pressure 30.03 in    
Wind  
Wind Speed 4 mph (SSW)    
Max Wind Speed 14 mph    
Max Gust Speed 18 mph    
Visibility 10 miles    
Events      
T = Trace of Precipitation, MM = Missing Value Source: NWS Daily Summary

Daily Weather History Graph

Daily Weather History Graph

Search for Another Location

Airport or City:

Trip Planner

Search our weather history database for the weather conditions in past years. The results will help you decide how hot, cold, wet, or windy it might be!

Date:

Astronomy

Jun. 15, 2013 Rise Set
Actual Time 5:50 AM EDT 8:38 PM EDT
Civil Twilight 5:18 AM EDT 9:10 PM EDT
Nautical Twilight 4:39 AM EDT 9:49 PM EDT
Astronomical Twilight 3:54 AM EDT 10:34 PM EDT
Moon 12:17 PM EDT (6/15) 12:18 AM EDT (6/15)
Length of Visible Light 15h 51m
Length of Day
14h 48m
Waxing Crescent, 39% of the Moon is Illuminated
Jun 15
Waxing Crescent
Jun 16
First Quarter
Jun 23
Full
Jun 30
Last Quarter
Jul 8
New

Hourly Weather History & Observations

Time (EDT) Temp. Heat Index Dew Point Humidity Pressure Visibility Wind Dir Wind Speed Gust Speed Precip Events Conditions
12:53 AM 61.0 °F - 54.0 °F 78% 30.02 in 10.0 mi Calm Calm - N/A   Clear
1:53 AM 59.0 °F - 54.0 °F 83% 30.02 in 10.0 mi South 3.5 mph - N/A   Clear
2:53 AM 60.1 °F - 53.1 °F 78% 30.01 in 10.0 mi NW 3.5 mph - N/A   Clear
3:53 AM 61.0 °F - 53.1 °F 75% 30.01 in 10.0 mi West 5.8 mph - N/A   Clear
4:53 AM 59.0 °F - 53.1 °F 81% 30.02 in 10.0 mi West 4.6 mph - N/A   Clear
5:53 AM 57.0 °F - 52.0 °F 83% 30.04 in 10.0 mi Variable 3.5 mph - N/A   Clear
6:53 AM 60.1 °F - 53.1 °F 78% 30.06 in 10.0 mi West 3.5 mph - N/A   Clear
7:53 AM 64.0 °F - 55.0 °F 73% 30.08 in 10.0 mi SSW 3.5 mph - N/A   Clear
8:53 AM 69.1 °F - 55.9 °F 63% 30.08 in 10.0 mi SSW 3.5 mph - N/A   Clear
9:53 AM 73.0 °F - 55.9 °F 55% 30.10 in 10.0 mi Calm Calm - N/A   Clear
10:53 AM 75.9 °F - 54.0 °F 46% 30.09 in 10.0 mi South 6.9 mph - N/A   Clear
11:53 AM 78.1 °F - 53.1 °F 42% 30.07 in 10.0 mi Variable 3.5 mph - N/A   Clear
12:53 PM 79.0 °F - 52.0 °F 39% 30.06 in 10.0 mi Variable 4.6 mph - N/A   Clear
1:53 PM 81.0 °F - 51.1 °F 35% 30.04 in 10.0 mi Variable 5.8 mph - N/A   Scattered Clouds
2:53 PM 81.0 °F 80.4 °F 53.1 °F 38% 30.03 in 10.0 mi Variable 3.5 mph - N/A   Scattered Clouds
3:53 PM 81.0 °F 80.4 °F 53.1 °F 38% 30.02 in 10.0 mi Variable 3.5 mph - N/A   Clear
4:53 PM 79.0 °F - 55.9 °F 45% 30.01 in 10.0 mi South 9.2 mph - N/A   Scattered Clouds
5:53 PM 81.0 °F 80.7 °F 55.0 °F 41% 30.00 in 10.0 mi SSW 5.8 mph - N/A   Clear
6:53 PM 80.1 °F 80.2 °F 55.9 °F 43% 29.99 in 10.0 mi SSW 3.5 mph - N/A   Clear
7:53 PM 75.9 °F - 57.0 °F 52% 30.00 in 10.0 mi South 5.8 mph - N/A   Clear
8:53 PM 75.0 °F - 57.0 °F 53% 30.01 in 10.0 mi SSW 3.5 mph - N/A   Scattered Clouds
9:53 PM 73.0 °F - 57.0 °F 57% 30.01 in 10.0 mi South 3.5 mph - N/A   Scattered Clouds
10:53 PM 72.0 °F - 57.9 °F 61% 30.01 in 10.0 mi Calm Calm - N/A   Partly Cloudy
11:53 PM 68.0 °F - 59.0 °F 73% 30.02 in 10.0 mi Calm Calm - N/A   Clear